| time (UTC) | temp F | wind direction | speed MPH | gust MPH | rain 1hr in | rain 24hr in | rain mn in | humidity % | barometer mb |
| 20260508170039 | 62 | 277 | 0.0 | 6.0 | 0.00 | 0.00 | 0.00 | 70 | 1022.7 |
| 20260508165538 | 62 | 261 | 0.0 | 7.0 | 0.00 | 0.00 | 0.00 | 71 | 1022.7 |
| 20260508165039 | 62 | 265 | 0.0 | 7.0 | 0.00 | 0.00 | 0.00 | 70 | 1022.6 |
| 20260508164537 | 62 | 299 | 1.0 | 7.0 | 0.00 | 0.00 | 0.00 | 71 | 1022.6 |
| 20260508164037 | 62 | 240 | 0.0 | 7.0 | 0.00 | 0.00 | 0.00 | 71 | 1022.8 |
| 20260508163536 | 62 | 259 | 0.0 | 6.0 | 0.00 | 0.00 | 0.00 | 72 | 1022.7 |
| 20260508163037 | 61 | 254 | 0.0 | 8.0 | 0.00 | 0.00 | 0.00 | 73 | 1022.8 |
| 20260508162534 | 61 | 230 | 0.0 | 2.0 | 0.00 | 0.00 | 0.00 | 73 | 1022.8 |
| 20260508162036 | 60 | 275 | 0.0 | 3.0 | 0.00 | 0.00 | 0.00 | 73 | 1022.8 |
| 20260508161537 | 60 | 261 | 0.0 | 4.0 | 0.00 | 0.00 | 0.00 | 73 | 1022.9 |
| 20260508160531 | 59 | 207 | 0.0 | 7.0 | 0.00 | 0.00 | 0.00 | 74 | 1022.8 |
| 20260508160035 | 59 | 248 | 1.0 | 8.0 | 0.00 | 0.00 | 0.00 | 74 | 1022.8 |
| 20260508155533 | 58 | 284 | 1.0 | 8.0 | 0.00 | 0.00 | 0.00 | 73 | 1022.8 |
| 20260508155030 | 58 | 266 | 0.0 | 5.0 | 0.00 | 0.00 | 0.00 | 74 | 1022.8 |
| 20260508154530 | 58 | 292 | 0.0 | 5.0 | 0.00 | 0.00 | 0.00 | 74 | 1022.7 |
| 20260508154029 | 57 | 254 | 0.0 | 4.0 | 0.00 | 0.00 | 0.00 | 74 | 1022.8 |
| 20260508153530 | 57 | 251 | 0.0 | 4.0 | 0.00 | 0.00 | 0.00 | 74 | 1022.8 |
| 20260508153029 | 56 | 289 | 0.0 | 8.0 | 0.00 | 0.00 | 0.00 | 76 | 1022.8 |
| 20260508152529 | 56 | 236 | 1.0 | 8.0 | 0.00 | 0.00 | 0.00 | 76 | 1022.8 |
| 20260508152029 | 56 | 268 | 0.0 | 6.0 | 0.00 | 0.00 | 0.00 | 76 | 1022.8 |
| 20260508151529 | 56 | 286 | 1.0 | 9.0 | 0.00 | 0.00 | 0.00 | 76 | 1022.7 |
| 20260508150527 | 56 | 240 | 0.0 | 10.0 | 0.00 | 0.00 | 0.00 | 75 | 1022.7 |
| 20260508150037 | 56 | 264 | 1.0 | 9.0 | 0.00 | 0.00 | 0.00 | 74 | 1022.7 |
| 20260508145527 | 56 | 224 | 1.0 | 9.0 | 0.00 | 0.00 | 0.00 | 75 | 1022.6 |
| 20260508145028 | 56 | 270 | 0.0 | 5.0 | 0.00 | 0.00 | 0.00 | 76 | 1022.6 |
| 20260508144539 | 56 | 247 | 0.0 | 6.0 | 0.00 | 0.00 | 0.00 | 76 | 1022.6 |
| 20260508144027 | 56 | 278 | 1.0 | 6.0 | 0.00 | 0.00 | 0.00 | 77 | 1022.6 |
| 20260508143526 | 56 | 288 | 0.0 | 7.0 | 0.00 | 0.00 | 0.00 | 77 | 1022.6 |
| 20260508143035 | 56 | 321 | 0.0 | 7.0 | 0.00 | 0.00 | 0.00 | 77 | 1022.6 |
| 20260508142525 | 56 | 287 | 0.0 | 5.0 | 0.00 | 0.00 | 0.00 | 76 | 1022.4 |
| 20260508142024 | 56 | 278 | 0.0 | 5.0 | 0.00 | 0.00 | 0.00 | 76 | 1022.3 |
| 20260508141527 | 56 | 257 | 0.0 | 4.0 | 0.00 | 0.00 | 0.00 | 76 | 1022.2 |
| 20260508140524 | 55 | 269 | 0.0 | 7.0 | 0.00 | 0.00 | 0.00 | 77 | 1022.1 |
| 20260508140034 | 55 | 246 | 1.0 | 8.0 | 0.00 | 0.00 | 0.00 | 76 | 1022.1 |
| 20260508135523 | 55 | 271 | 0.0 | 7.0 | 0.00 | 0.00 | 0.00 | 77 | 1022.1 |
| 20260508135022 | 55 | 237 | 2.0 | 7.0 | 0.00 | 0.00 | 0.00 | 77 | 1022.1 |
| 20260508134524 | 55 | 263 | 1.0 | 7.0 | 0.00 | 0.00 | 0.00 | 78 | 1022.1 |
| 20260508134022 | 54 | 279 | 0.0 | 9.0 | 0.00 | 0.00 | 0.00 | 78 | 1022.0 |
| 20260508133524 | 54 | 280 | 1.0 | 9.0 | 0.00 | 0.00 | 0.00 | 79 | 1022.0 |
| 20260508133020 | 54 | 272 | 1.0 | 7.0 | 0.00 | 0.00 | 0.00 | 79 | 1021.9 |
| 20260508132520 | 54 | 312 | 1.0 | 7.0 | 0.00 | 0.00 | 0.00 | 79 | 1021.9 |
| 20260508132019 | 54 | 228 | 1.0 | 8.0 | 0.00 | 0.00 | 0.00 | 78 | 1021.8 |
| 20260508131520 | 54 | 252 | 0.0 | 8.0 | 0.00 | 0.00 | 0.00 | 79 | 1021.8 |
| 20260508130519 | 54 | 299 | 2.0 | 6.0 | 0.00 | 0.00 | 0.00 | 78 | 1021.6 |
| 20260508130024 | 54 | 285 | 0.0 | 6.0 | 0.00 | 0.00 | 0.00 | 78 | 1021.7 |
| 20260508125519 | 54 | 278 | 0.0 | 11.0 | 0.00 | 0.00 | 0.00 | 77 | 1021.7 |
| 20260508125020 | 54 | 224 | 1.0 | 11.0 | 0.00 | 0.00 | 0.00 | 76 | 1021.6 |
| 20260508124517 | 55 | 281 | 2.0 | 9.0 | 0.00 | 0.00 | 0.00 | 76 | 1021.5 |
| 20260508124017 | 55 | 290 | 2.0 | 9.0 | 0.00 | 0.00 | 0.00 | 76 | 1021.5 |
| 20260508123517 | 55 | 325 | 1.0 | 10.0 | 0.00 | 0.00 | 0.00 | 77 | 1021.4 |
| 20260508123018 | 55 | 285 | 3.0 | 9.0 | 0.00 | 0.00 | 0.00 | 77 | 1021.3 |
| 20260508122518 | 55 | 299 | 0.0 | 6.0 | 0.00 | 0.00 | 0.00 | 78 | 1021.3 |
| 20260508122016 | 55 | 244 | 2.0 | 9.0 | 0.00 | 0.00 | 0.00 | 79 | 1021.3 |
| 20260508121522 | 55 | 269 | 0.0 | 6.0 | 0.00 | 0.00 | 0.00 | 78 | 1021.3 |
| 20260508120518 | 55 | 230 | 1.0 | 6.0 | 0.00 | 0.00 | 0.00 | 76 | 1021.3 |
| 20260508120022 | 55 | 278 | 0.0 | 8.0 | 0.00 | 0.00 | 0.00 | 77 | 1021.3 |
| 20260508115517 | 55 | 263 | 1.0 | 8.0 | 0.00 | 0.00 | 0.00 | 78 | 1021.3 |
| 20260508115017 | 55 | 251 | 0.0 | 9.0 | 0.00 | 0.00 | 0.00 | 79 | 1021.4 |
| 20260508114528 | 55 | 249 | 1.0 | 7.0 | 0.00 | 0.00 | 0.00 | 79 | 1021.4 |
| 20260508114020 | 54 | 240 | 1.0 | 5.0 | 0.00 | 0.00 | 0.00 | 78 | 1021.5 |
| 20260508113516 | 54 | 222 | 2.0 | 5.0 | 0.00 | 0.00 | 0.00 | 79 | 1021.5 |
| 20260508113018 | 54 | 253 | 1.0 | 5.0 | 0.00 | 0.00 | 0.00 | 78 | 1021.6 |
| 20260508112514 | 54 | 234 | 1.0 | 7.0 | 0.00 | 0.00 | 0.00 | 77 | 1021.6 |
| 20260508112014 | 55 | 257 | 1.0 | 7.0 | 0.00 | 0.00 | 0.00 | 76 | 1021.6 |
| 20260508111513 | 55 | 244 | 2.0 | 7.0 | 0.00 | 0.00 | 0.00 | 74 | 1021.5 |
| 20260508110513 | 55 | 270 | 2.0 | 8.0 | 0.00 | 0.00 | 0.00 | 70 | 1021.6 |
| 20260508110010 | 55 | 255 | 1.0 | 8.0 | 0.00 | 0.00 | 0.00 | 69 | 1021.6 |
| 20260508105510 | 56 | 286 | 1.0 | 9.0 | 0.00 | 0.00 | 0.00 | 67 | 1021.6 |
| 20260508105010 | 56 | 271 | 2.0 | 9.0 | 0.00 | 0.00 | 0.00 | 67 | 1021.6 |
| 20260508104509 | 56 | 246 | 1.0 | 8.0 | 0.00 | 0.00 | 0.00 | 68 | 1021.5 |
| 20260508104011 | 56 | 288 | 1.0 | 8.0 | 0.00 | 0.00 | 0.00 | 70 | 1021.4 |
| 20260508103508 | 56 | 245 | 1.0 | 7.0 | 0.00 | 0.00 | 0.00 | 69 | 1021.4 |
| 20260508103008 | 56 | 263 | 0.0 | 7.0 | 0.00 | 0.00 | 0.00 | 69 | 1021.4 |
| 20260508102508 | 56 | 287 | 0.0 | 7.0 | 0.00 | 0.00 | 0.00 | 69 | 1021.4 |
| 20260508102007 | 56 | 241 | 1.0 | 7.0 | 0.00 | 0.00 | 0.00 | 71 | 1021.3 |
| 20260508101507 | 56 | 248 | 1.0 | 5.0 | 0.00 | 0.00 | 0.00 | 70 | 1021.3 |
| 20260508100541 | 57 | 290 | 0.0 | 7.0 | 0.00 | 0.00 | 0.00 | 68 | 1021.2 |
| 20260508100041 | 57 | 305 | 2.0 | 7.0 | 0.00 | 0.00 | 0.00 | 68 | 1021.3 |
| 20260508095543 | 57 | 288 | 1.0 | 8.0 | 0.00 | 0.00 | 0.00 | 67 | 1021.3 |
| 20260508095040 | 57 | 242 | 1.0 | 8.0 | 0.00 | 0.00 | 0.00 | 69 | 1021.4 |
| 20260508094539 | 57 | 266 | 1.0 | 7.0 | 0.00 | 0.00 | 0.00 | 70 | 1021.4 |
| 20260508094038 | 57 | 276 | 0.0 | 8.0 | 0.00 | 0.00 | 0.00 | 69 | 1021.3 |
| 20260508093536 | 58 | 249 | 0.0 | 8.0 | 0.00 | 0.00 | 0.00 | 67 | 1021.3 |
| 20260508093036 | 58 | 320 | 1.0 | 10.0 | 0.00 | 0.00 | 0.00 | 65 | 1021.3 |
| 20260508092535 | 59 | 299 | 2.0 | 10.0 | 0.00 | 0.00 | 0.00 | 61 | 1021.3 |
| 20260508092032 | 59 | 240 | 1.0 | 9.0 | 0.00 | 0.00 | 0.00 | 60 | 1021.4 |
| 20260508091533 | 59 | 303 | 1.0 | 9.0 | 0.00 | 0.00 | 0.00 | 58 | 1021.5 |
| 20260508090556 | 59 | 263 | 1.0 | 9.0 | 0.00 | 0.00 | 0.00 | 57 | 1021.4 |
| 20260508090059 | 60 | 158 | 0.0 | 6.0 | 0.00 | 0.00 | 0.00 | 59 | 1021.4 |
| 20260508085554 | 60 | 291 | 1.0 | 9.0 | 0.00 | 0.00 | 0.00 | 60 | 1021.5 |
| 20260508085054 | 60 | 330 | 2.0 | 9.0 | 0.00 | 0.00 | 0.00 | 60 | 1021.4 |
| 20260508084554 | 60 | 284 | 2.0 | 7.0 | 0.00 | 0.00 | 0.00 | 61 | 1021.4 |
| 20260508084055 | 60 | 311 | 0.0 | 7.0 | 0.00 | 0.00 | 0.00 | 63 | 1021.4 |
| 20260508083554 | 60 | 264 | 2.0 | 7.0 | 0.00 | 0.00 | 0.00 | 62 | 1021.5 |
| 20260508083054 | 60 | 249 | 1.0 | 8.0 | 0.00 | 0.00 | 0.00 | 61 | 1021.5 |
| 20260508082554 | 60 | 302 | 1.0 | 8.0 | 0.00 | 0.00 | 0.00 | 62 | 1021.6 |
| 20260508082054 | 60 | 286 | 3.0 | 8.0 | 0.00 | 0.00 | 0.00 | 64 | 1021.6 |
| 20260508081604 | 60 | 296 | 2.0 | 6.0 | 0.00 | 0.00 | 0.00 | 63 | 1021.6 |
| 20260508080526 | 61 | 295 | 3.0 | 9.0 | 0.00 | 0.00 | 0.00 | 60 | 1021.7 |
| 20260508080022 | 61 | 314 | 2.0 | 7.0 | 0.00 | 0.00 | 0.00 | 58 | 1021.6 |
| 20260508075523 | 61 | 314 | 1.0 | 7.0 | 0.00 | 0.00 | 0.00 | 57 | 1021.6 |
| 20260508075025 | 61 | 248 | 0.0 | 9.0 | 0.00 | 0.00 | 0.00 | 56 | 1021.6 |
| 20260508074522 | 61 | 278 | 0.0 | 6.0 | 0.00 | 0.00 | 0.00 | 57 | 1021.6 |
| 20260508074022 | 61 | 233 | 0.0 | 6.0 | 0.00 | 0.00 | 0.00 | 54 | 1021.6 |
| 20260508073522 | 61 | 272 | 0.0 | 6.0 | 0.00 | 0.00 | 0.00 | 55 | 1021.6 |
| 20260508073022 | 62 | 265 | 1.0 | 6.0 | 0.00 | 0.00 | 0.00 | 55 | 1021.6 |
| 20260508072524 | 62 | 289 | 1.0 | 6.0 | 0.00 | 0.00 | 0.00 | 56 | 1021.5 |
| 20260508072022 | 62 | 287 | 1.0 | 8.0 | 0.00 | 0.00 | 0.00 | 59 | 1021.5 |
| 20260508071522 | 62 | 250 | 1.0 | 8.0 | 0.00 | 0.00 | 0.00 | 56 | 1021.4 |
| 20260508070553 | 62 | 265 | 1.0 | 11.0 | 0.00 | 0.00 | 0.00 | 54 | 1021.4 |
| 20260508070059 | 62 | 281 | 2.0 | 11.0 | 0.00 | 0.00 | 0.00 | 49 | 1021.5 |
| 20260508065553 | 62 | 251 | 1.0 | 7.0 | 0.00 | 0.00 | 0.00 | 48 | 1021.4 |
| 20260508065052 | 62 | 224 | 1.0 | 8.0 | 0.00 | 0.00 | 0.00 | 50 | 1021.5 |
| 20260508064605 | 63 | 303 | 1.0 | 10.0 | 0.00 | 0.00 | 0.00 | 51 | 1021.4 |
| 20260508064053 | 63 | 303 | 1.0 | 10.0 | 0.00 | 0.00 | 0.00 | 52 | 1021.5 |
| 20260508063553 | 63 | 281 | 1.0 | 7.0 | 0.00 | 0.00 | 0.00 | 55 | 1021.5 |
| 20260508063052 | 63 | 311 | 1.0 | 8.0 | 0.00 | 0.00 | 0.00 | 54 | 1021.4 |
| 20260508062552 | 63 | 292 | 2.0 | 8.0 | 0.00 | 0.00 | 0.00 | 52 | 1021.5 |
| 20260508062052 | 63 | 311 | 1.0 | 8.0 | 0.00 | 0.00 | 0.00 | 52 | 1021.5 |
| 20260508061559 | 63 | 292 | 1.0 | 9.0 | 0.00 | 0.00 | 0.00 | 50 | 1021.5 |
| 20260508060553 | 63 | 274 | 1.0 | 8.0 | 0.00 | 0.00 | 0.00 | 48 | 1021.4 |
| 20260508060052 | 63 | 294 | 2.0 | 8.0 | 0.00 | 0.00 | 0.00 | 52 | 1021.4 |
| 20260508055553 | 63 | 273 | 2.0 | 9.0 | 0.00 | 0.00 | 0.00 | 54 | 1021.3 |
| 20260508055052 | 63 | 297 | 3.0 | 8.0 | 0.00 | 0.00 | 0.00 | 58 | 1021.2 |
| 20260508054620 | 63 | 299 | 1.0 | 8.0 | 0.00 | 0.00 | 0.00 | 60 | 1021.3 |
| 20260508054053 | 64 | 312 | 1.0 | 8.0 | 0.00 | 0.00 | 0.00 | 57 | 1021.3 |
| 20260508053551 | 64 | 302 | 1.0 | 7.0 | 0.00 | 0.00 | 0.00 | 53 | 1021.3 |
| 20260508053052 | 64 | 307 | 0.0 | 8.0 | 0.00 | 0.00 | 0.00 | 54 | 1021.3 |
| 20260508052558 | 64 | 221 | 1.0 | 9.0 | 0.00 | 0.00 | 0.00 | 51 | 1021.3 |
| 20260508052055 | 64 | 201 | 1.0 | 10.0 | 0.00 | 0.00 | 0.00 | 55 | 1021.3 |
| 20260508051558 | 64 | 244 | 3.0 | 10.0 | 0.00 | 0.00 | 0.00 | 53 | 1021.4 |
| 20260508050555 | 64 | 263 | 1.0 | 8.0 | 0.00 | 0.00 | 0.00 | 54 | 1021.4 |
| 20260508050056 | 64 | 244 | 2.0 | 11.0 | 0.00 | 0.00 | 0.00 | 56 | 1021.4 |
| 20260508045554 | 64 | 282 | 1.0 | 9.0 | 0.00 | 0.00 | 0.00 | 56 | 1021.4 |
| 20260508045054 | 65 | 259 | 2.0 | 9.0 | 0.00 | 0.00 | 0.00 | 64 | 1021.4 |
| 20260508044554 | 65 | 269 | 2.0 | 9.0 | 0.00 | 0.00 | 0.00 | 66 | 1021.3 |
| 20260508044053 | 65 | 292 | 1.0 | 9.0 | 0.00 | 0.00 | 0.00 | 67 | 1021.4 |
| 20260508043556 | 65 | 276 | 1.0 | 11.0 | 0.00 | 0.00 | 0.00 | 67 | 1021.3 |
| 20260508043059 | 65 | 269 | 3.0 | 11.0 | 0.00 | 0.00 | 0.00 | 67 | 1021.3 |
| 20260508042554 | 65 | 302 | 1.0 | 6.0 | 0.00 | 0.00 | 0.00 | 67 | 1021.2 |
| 20260508042054 | 66 | 242 | 1.0 | 8.0 | 0.00 | 0.00 | 0.00 | 68 | 1021.1 |
| 20260508041554 | 66 | 272 | 1.0 | 8.0 | 0.00 | 0.00 | 0.00 | 67 | 1021.0 |
| 20260508040521 | 66 | 275 | 1.0 | 8.0 | 0.00 | 0.00 | 0.00 | 64 | 1020.9 |
| 20260508040020 | 66 | 307 | 1.0 | 10.0 | 0.00 | 0.00 | 0.00 | 62 | 1020.8 |
| 20260508035524 | 67 | 290 | 4.0 | 12.0 | 0.00 | 0.00 | 0.00 | 58 | 1020.8 |
| 20260508035020 | 67 | 314 | 2.0 | 12.0 | 0.00 | 0.00 | 0.00 | 55 | 1020.9 |
| 20260508034526 | 67 | 294 | 3.0 | 12.0 | 0.00 | 0.00 | 0.00 | 57 | 1020.9 |
| 20260508034020 | 68 | 322 | 1.0 | 9.0 | 0.00 | 0.00 | 0.00 | 65 | 1020.7 |
| 20260508033520 | 68 | 267 | 2.0 | 10.0 | 0.00 | 0.00 | 0.00 | 66 | 1020.6 |
| 20260508033020 | 68 | 326 | 1.0 | 10.0 | 0.00 | 0.00 | 0.00 | 66 | 1020.6 |
| 20260508032520 | 69 | 333 | 2.0 | 8.0 | 0.00 | 0.00 | 0.00 | 64 | 1020.5 |
| 20260508032020 | 69 | 248 | 0.0 | 8.0 | 0.00 | 0.00 | 0.00 | 59 | 1020.4 |
| 20260508031520 | 69 | 257 | 1.0 | 8.0 | 0.00 | 0.00 | 0.00 | 55 | 1020.4 |
| 20260508030550 | 69 | 339 | 1.0 | 9.0 | 0.00 | 0.00 | 0.00 | 49 | 1020.3 |
| 20260508030055 | 70 | 334 | 2.0 | 12.0 | 0.00 | 0.00 | 0.00 | 50 | 1020.3 |
| 20260508025549 | 70 | 316 | 2.0 | 12.0 | 0.00 | 0.00 | 0.00 | 50 | 1020.2 |
| 20260508025050 | 70 | 297 | 1.0 | 9.0 | 0.00 | 0.00 | 0.00 | 59 | 1020.3 |
| 20260508024550 | 70 | 304 | 2.0 | 8.0 | 0.00 | 0.00 | 0.00 | 50 | 1020.1 |
| 20260508024051 | 70 | 312 | 0.0 | 9.0 | 0.00 | 0.00 | 0.00 | 59 | 1020.2 |
| 20260508023551 | 71 | 299 | 1.0 | 10.0 | 0.00 | 0.00 | 0.00 | 60 | 1020.2 |
| 20260508023050 | 71 | 294 | 2.0 | 9.0 | 0.00 | 0.00 | 0.00 | 65 | 1020.2 |
| 20260508022551 | 72 | 241 | 0.0 | 13.0 | 0.00 | 0.00 | 0.00 | 61 | 1020.1 |
| 20260508022049 | 72 | 211 | 1.0 | 8.0 | 0.00 | 0.00 | 0.00 | 60 | 1020.1 |
| 20260508021549 | 72 | 184 | 1.0 | 10.0 | 0.00 | 0.00 | 0.00 | 60 | 1020.1 |
| 20260508020550 | 73 | 238 | 3.0 | 10.0 | 0.00 | 0.00 | 0.00 | 58 | 1020.1 |
| 20260508020050 | 73 | 224 | 1.0 | 10.0 | 0.00 | 0.00 | 0.00 | 60 | 1020.0 |
| 20260508015548 | 73 | 206 | 3.0 | 10.0 | 0.00 | 0.00 | 0.00 | 59 | 1020.0 |
| 20260508015048 | 74 | 201 | 0.0 | 11.0 | 0.00 | 0.00 | 0.00 | 59 | 1020.0 |
| 20260508014548 | 74 | 203 | 3.0 | 11.0 | 0.00 | 0.00 | 0.00 | 58 | 1020.0 |
| 20260508014048 | 75 | 197 | 2.0 | 10.0 | 0.00 | 0.00 | 0.00 | 58 | 1020.0 |
| 20260508013547 | 75 | 171 | 0.0 | 8.0 | 0.00 | 0.00 | 0.00 | 56 | 1020.0 |
| 20260508013048 | 75 | 178 | 0.0 | 8.0 | 0.00 | 0.00 | 0.00 | 56 | 1020.0 |
| 20260508012548 | 76 | 230 | 0.0 | 10.0 | 0.00 | 0.00 | 0.00 | 56 | 1020.0 |
| 20260508012052 | 76 | 220 | 2.0 | 6.0 | 0.00 | 0.00 | 0.00 | 55 | 1019.9 |
| 20260508011551 | 77 | 186 | 0.0 | 10.0 | 0.00 | 0.00 | 0.00 | 55 | 1020.0 |
| 20260508010551 | 77 | 287 | 2.0 | 15.0 | 0.00 | 0.00 | 0.00 | 53 | 1020.0 |
| 20260508010049 | 77 | 200 | 3.0 | 15.0 | 0.00 | 0.00 | 0.00 | 51 | 1020.1 |
| 20260508005551 | 78 | 198 | 4.0 | 9.0 | 0.00 | 0.00 | 0.00 | 51 | 1020.1 |
| 20260508005052 | 78 | 174 | 3.0 | 9.0 | 0.00 | 0.00 | 0.00 | 50 | 1020.1 |
| 20260508004549 | 79 | 182 | 1.0 | 7.0 | 0.00 | 0.00 | 0.00 | 48 | 1020.1 |
| 20260508004048 | 80 | 151 | 1.0 | 7.0 | 0.00 | 0.00 | 0.00 | 46 | 1020.0 |
| 20260508003548 | 80 | 193 | 0.0 | 6.0 | 0.00 | 0.00 | 0.00 | 46 | 1020.1 |
| 20260508003048 | 80 | 259 | 0.0 | 5.0 | 0.00 | 0.00 | 0.00 | 47 | 1020.1 |
| 20260508002547 | 80 | 309 | 0.0 | 5.0 | 0.00 | 0.00 | 0.00 | 46 | 1020.1 |
| 20260508002049 | 80 | 309 | 2.0 | 5.0 | 0.00 | 0.00 | 0.00 | 44 | 1020.1 |
| 20260508001547 | 81 | 305 | 1.0 | 5.0 | 0.00 | 0.00 | 0.00 | 41 | 1020.1 |
| 20260508000545 | 81 | 289 | 0.0 | 1.0 | 0.00 | 0.00 | 0.00 | 41 | 1020.1 |
| 20260508000101 | 81 | 290 | 0.0 | 1.0 | 0.00 | 0.00 | 0.00 | 38 | 1020.2 |
| 20260507235551 | 80 | 266 | 0.0 | 2.0 | 0.00 | 0.00 | 0.00 | 39 | 1020.1 |
| 20260507235045 | 80 | 312 | 0.0 | 4.0 | 0.00 | 0.00 | 0.00 | 38 | 1020.2 |
| 20260507234548 | 79 | 305 | 0.0 | 5.0 | 0.00 | 0.00 | 0.00 | 39 | 1020.2 |
| 20260507234047 | 80 | 302 | 1.0 | 5.0 | 0.00 | 0.00 | 0.00 | 38 | 1020.3 |
| 20260507233544 | 80 | 304 | 0.0 | 4.0 | 0.00 | 0.00 | 0.00 | 37 | 1020.3 |
| 20260507233044 | 80 | 305 | 0.0 | 6.0 | 0.00 | 0.00 | 0.00 | 37 | 1020.3 |
| 20260507232543 | 80 | 308 | 1.0 | 6.0 | 0.00 | 0.00 | 0.00 | 36 | 1020.3 |
| 20260507232042 | 81 | 306 | 0.0 | 6.0 | 0.00 | 0.00 | 0.00 | 37 | 1020.4 |
| 20260507231546 | 81 | 301 | 0.0 | 6.0 | 0.00 | 0.00 | 0.00 | 36 | 1020.5 |
| 20260507230547 | 81 | 319 | 0.0 | 5.0 | 0.00 | 0.00 | 0.00 | 35 | 1020.5 |
| 20260507230042 | 82 | 303 | 0.0 | 4.0 | 0.00 | 0.00 | 0.00 | 35 | 1020.6 |
| 20260507225541 | 82 | 301 | 0.0 | 4.0 | 0.00 | 0.00 | 0.00 | 34 | 1020.6 |
| 20260507225041 | 81 | 290 | 0.0 | 3.0 | 0.00 | 0.00 | 0.00 | 35 | 1020.7 |
| 20260507224540 | 82 | 298 | 0.0 | 3.0 | 0.00 | 0.00 | 0.00 | 34 | 1020.8 |
| 20260507224039 | 82 | 296 | 0.0 | 3.0 | 0.00 | 0.00 | 0.00 | 34 | 1020.9 |
| 20260507223540 | 81 | 293 | 0.0 | 4.0 | 0.00 | 0.00 | 0.00 | 42 | 1020.8 |
| 20260507223039 | 81 | 293 | 0.0 | 4.0 | 0.00 | 0.00 | 0.00 | 35 | 1020.9 |
| 20260507222538 | 80 | 253 | 0.0 | 3.0 | 0.00 | 0.00 | 0.00 | 41 | 1020.9 |
| 20260507222038 | 80 | 253 | 0.0 | 5.0 | 0.00 | 0.00 | 0.00 | 41 | 1021.0 |
| 20260507221536 | 81 | 251 | 0.0 | 3.0 | 0.00 | 0.00 | 0.00 | 35 | 1021.1 |
| 20260507220539 | 80 | 247 | 0.0 | 2.0 | 0.00 | 0.00 | 0.00 | 34 | 1021.3 |
| 20260507220035 | 80 | 247 | 0.0 | 5.0 | 0.00 | 0.00 | 0.00 | 29 | 1021.3 |
| 20260507215535 | 81 | 220 | 0.0 | 2.0 | 0.00 | 0.00 | 0.00 | 33 | 1021.4 |
| 20260507215035 | 81 | 212 | 0.0 | 2.0 | 0.00 | 0.00 | 0.00 | 27 | 1021.4 |
| 20260507214536 | 81 | 151 | 0.0 | 1.0 | 0.00 | 0.00 | 0.00 | 35 | 1021.5 |
| 20260507214032 | 81 | 151 | 0.0 | 0.0 | 0.00 | 0.00 | 0.00 | 35 | 1021.6 |
| 20260507213533 | 80 | 151 | 0.0 | 3.0 | 0.00 | 0.00 | 0.00 | 37 | 1021.7 |
| 20260507213037 | 80 | 146 | 0.0 | 3.0 | 0.00 | 0.00 | 0.00 | 33 | 1021.7 |
| 20260507212530 | 81 | 24 | 0.0 | 1.0 | 0.00 | 0.00 | 0.00 | 37 | 1021.8 |
| 20260507212032 | 80 | 9 | 0.0 | 0.0 | 0.00 | 0.00 | 0.00 | 35 | 1021.8 |
| 20260507211541 | 80 | 9 | 0.0 | 1.0 | 0.00 | 0.00 | 0.00 | 30 | 1021.9 |
| 20260507210528 | 80 | 25 | 0.0 | 0.0 | 0.00 | 0.00 | 0.00 | 35 | 1022.0 |
| 20260507210027 | 80 | 44 | 0.0 | 0.0 | 0.00 | 0.00 | 0.00 | 42 | 1022.0 |
| 20260507205526 | 79 | 47 | 0.0 | 0.0 | 0.00 | 0.00 | 0.00 | 49 | 1022.0 |
| 20260507205026 | 78 | 47 | 0.0 | 0.0 | 0.00 | 0.00 | 0.00 | 51 | 1022.0 |
| 20260507204525 | 78 | 48 | 0.0 | 3.0 | 0.00 | 0.00 | 0.00 | 51 | 1022.1 |
| 20260507204024 | 79 | 65 | 0.0 | 4.0 | 0.00 | 0.00 | 0.00 | 51 | 1022.1 |
| 20260507203523 | 78 | 70 | 0.0 | 4.0 | 0.00 | 0.00 | 0.00 | 50 | 1022.2 |
| 20260507203022 | 78 | 76 | 0.0 | 2.0 | 0.00 | 0.00 | 0.00 | 51 | 1022.3 |
| 20260507202521 | 78 | 78 | 0.0 | 4.0 | 0.00 | 0.00 | 0.00 | 51 | 1022.4 |
| 20260507202021 | 78 | 91 | 0.0 | 4.0 | 0.00 | 0.00 | 0.00 | 51 | 1022.3 |
| 20260507201521 | 78 | 88 | 0.0 | 4.0 | 0.00 | 0.00 | 0.00 | 53 | 1022.4 |
| 20260507200521 | 78 | 90 | 0.0 | 3.0 | 0.00 | 0.00 | 0.00 | 53 | 1022.5 |
| 20260507200020 | 77 | 90 | 0.0 | 5.0 | 0.00 | 0.00 | 0.00 | 55 | 1022.5 |
| 20260507195518 | 76 | 90 | 1.0 | 6.0 | 0.00 | 0.00 | 0.00 | 56 | 1022.5 |
| 20260507195022 | 76 | 90 | 1.0 | 6.0 | 0.00 | 0.00 | 0.00 | 57 | 1022.6 |
| 20260507194517 | 77 | 85 | 0.0 | 5.0 | 0.00 | 0.00 | 0.00 | 55 | 1022.6 |
| 20260507194017 | 76 | 83 | 0.0 | 6.0 | 0.00 | 0.00 | 0.00 | 56 | 1022.7 |
| 20260507193517 | 77 | 85 | 1.0 | 6.0 | 0.00 | 0.00 | 0.00 | 55 | 1022.7 |
| 20260507193021 | 77 | 95 | 1.0 | 5.0 | 0.00 | 0.00 | 0.00 | 56 | 1022.8 |
| 20260507192515 | 76 | 101 | 1.0 | 5.0 | 0.00 | 0.00 | 0.00 | 56 | 1022.8 |
| 20260507192013 | 76 | 97 | 0.0 | 4.0 | 0.00 | 0.00 | 0.00 | 55 | 1022.9 |
| 20260507191513 | 76 | 101 | 0.0 | 3.0 | 0.00 | 0.00 | 0.00 | 56 | 1022.9 |
| 20260507190515 | 75 | 97 | 0.0 | 5.0 | 0.00 | 0.00 | 0.00 | 60 | 1023.1 |
| 20260507190014 | 74 | 99 | 1.0 | 5.0 | 0.00 | 0.00 | 0.00 | 60 | 1023.2 |
| 20260507185508 | 73 | 87 | 0.0 | 7.0 | 0.00 | 0.00 | 0.00 | 62 | 1023.3 |
| 20260507185011 | 73 | 103 | 3.0 | 8.0 | 0.00 | 0.00 | 0.00 | 61 | 1023.3 |
| 20260507184507 | 73 | 95 | 2.0 | 8.0 | 0.00 | 0.00 | 0.00 | 62 | 1023.4 |
| 20260507184007 | 73 | 88 | 3.0 | 7.0 | 0.00 | 0.00 | 0.00 | 61 | 1023.4 |
| 20260507183510 | 72 | 95 | 2.0 | 7.0 | 0.00 | 0.00 | 0.00 | 61 | 1023.4 |
| 20260507183009 | 73 | 95 | 3.0 | 7.0 | 0.00 | 0.00 | 0.00 | 62 | 1023.5 |
| 20260507182506 | 72 | 94 | 1.0 | 8.0 | 0.00 | 0.00 | 0.00 | 61 | 1023.5 |
| 20260507182004 | 71 | 100 | 2.0 | 8.0 | 0.00 | 0.00 | 0.00 | 64 | 1023.5 |
| 20260507181505 | 72 | 103 | 3.0 | 7.0 | 0.00 | 0.00 | 0.00 | 64 | 1023.5 |
| 20260507180505 | 72 | 101 | 1.0 | 6.0 | 0.00 | 0.00 | 0.00 | 64 | 1023.5 |
| 20260507180004 | 71 | 101 | 1.0 | 6.0 | 0.00 | 0.00 | 0.00 | 66 | 1023.6 |
| 20260507175503 | 70 | 88 | 1.0 | 6.0 | 0.00 | 0.00 | 0.00 | 68 | 1023.6 |
| 20260507175101 | 69 | 99 | 1.0 | 7.0 | 0.00 | 0.00 | 0.00 | 70 | 1023.6 |
| 20260507174637 | 69 | 105 | 4.0 | 7.0 | 0.00 | 0.00 | 0.00 | 69 | 1023.6 |
| 20260507174059 | 69 | 106 | 2.0 | 7.0 | 0.00 | 0.00 | 0.00 | 70 | 1023.6 |
| 20260507173559 | 68 | 100 | 3.0 | 7.0 | 0.00 | 0.00 | 0.00 | 71 | 1023.7 |
| 20260507173059 | 68 | 91 | 2.0 | 7.0 | 0.00 | 0.00 | 0.00 | 71 | 1023.6 |
| 20260507172600 | 68 | 96 | 1.0 | 7.0 | 0.00 | 0.00 | 0.00 | 71 | 1023.6 |
| 20260507172059 | 69 | 103 | 1.0 | 7.0 | 0.00 | 0.00 | 0.00 | 70 | 1023.7 |
| 20260507171619 | 69 | 92 | 1.0 | 5.0 | 0.00 | 0.00 | 0.00 | 70 | 1023.8 |
| 20260507170506 | 67 | 86 | 0.0 | 3.0 | 0.00 | 0.00 | 0.00 | 74 | 1023.9 |